{"data":{"norad_id":49102,"intl_designator":"2021-075AD","name":"ONEWEB-0316","alt_names":[],"object_type":"PAYLOAD","status":"ACTIVE","operator":null,"country":"UK","launch_date":"2021-08-21","launch_site_code":"TYMSC","launch_vehicle":null,"mission":null,"orbit_class":"UNKNOWN","rcs_meters":null,"size_class":null,"mass_kg":null,"dimensions":null,"purposes":["comms"],"wikipedia_slug":null,"has_3d_model":false,"image_url":null,"decayed_at":null,"tle_current":{"epoch":"2026-09-20T03:45:07.375104Z","epoch_age_seconds":51662,"freshness":"FRESH","line1":"1 49102U 21075AD  26263.15633536  .00000037  00000+0  60750-4 0  9993","line2":"2 49102  87.9160 316.5866 0001795 100.1338 259.9996 13.18685225249726","mean_motion":13.18685225,"eccentricity":0.0001795,"inclination_deg":87.916,"raan_deg":316.5866,"arg_perigee_deg":100.1338,"mean_anomaly_deg":259.9996,"bstar":6.075e-5,"rev_number":24972,"period_min":109.19967651871,"perigee_km":1188.3876569804,"apogee_km":1191.1045270104,"semimajor_km":7567.8830919954,"source":"CELESTRAK","updated_at":"2026-09-20T09:00:44.658267Z"}}}